This is the latest recevied weather packets stored in our database for station/object RUSSARO. If no packets are shown the sender has not sent any weather packets the latest 10 day(s).
| Time | Temp. | Humidity | Pressure | Rain* | Wind** | Luminosity | Snow |
|---|---|---|---|---|---|---|---|
| 1778012843 | 4.44° C | 78% | 1009.3 hPa | 0 mm | - | - | - |
| 1778011642 | 4.44° C | 75% | 1009.1 hPa | 0 mm | - | - | - |
| 1778010441 | 4.44° C | 91% | 1009 hPa | 0 mm | - | - | - |
| 1778009242 | 4.44° C | 92% | 1009 hPa | 0 mm | - | - | - |
| 1778008042 | 4.44° C | 88% | 1008.9 hPa | 0 mm | - | - | - |
| 1778006841 | 4.44° C | 89% | 1008.8 hPa | 0 mm | - | - | - |
| 1778005641 | 5° C | 81% | 1008.6 hPa | 0 mm | - | - | - |
| 1778004441 | 5° C | 79% | 1008.4 hPa | 0 mm | - | - | - |
| 1778003241 | 5° C | 83% | 1008.3 hPa | 0 mm | - | - | - |
| 1778002041 | 5.56° C | 83% | 1008.2 hPa | 0 mm | - | - | - |
| 1778000841 | 5.56° C | 83% | 1008.1 hPa | 0 mm | - | - | - |
| 1777999641 | 6.11° C | 82% | 1008.1 hPa | 0 mm | - | - | - |
| 1777998441 | 6.11° C | 81% | 1008.1 hPa | 0 mm | - | - | - |
| 1777997241 | 6.67° C | 78% | 1008 hPa | 0 mm | - | - | - |
| 1777996041 | 6.11° C | 78% | 1008 hPa | 0 mm | - | - | - |
| 1777994841 | 6.67° C | 74% | 1007.9 hPa | 0 mm | - | - | - |
| 1777993641 | 7.22° C | 75% | 1008 hPa | 0 mm | - | - | - |
| 1777992441 | 7.22° C | 77% | 1007.8 hPa | 0 mm | - | - | - |
| 1777991241 | 7.78° C | 74% | 1007.8 hPa | 0 mm | - | - | - |
| 1777990040 | 7.78° C | 76% | 1007.7 hPa | 0 mm | - | - | - |
| 1777988841 | 7.78° C | 74% | 1007.5 hPa | 0 mm | - | - | - |
| 1777987640 | 7.78° C | 74% | 1007.4 hPa | 0 mm | - | - | - |
| 1777986441 | 7.78° C | 73% | 1007.3 hPa | 0 mm | - | - | - |
| 1777985240 | 8.33° C | 71% | 1007.2 hPa | 0 mm | - | - | - |
| 1777984040 | 8.33° C | 68% | 1007.1 hPa | 0 mm | - | - | - |
* Rain latest hour (hover to see other rain measurements)
** Current wind speed in m/s (hover to see current wind gust speed)